Showing default

EOS-8, 60454

Orbit data source: Space-Track

EOS-8, 60454 is a payload satellite owned by ISRO (IN) in LEO that was launched on Fri, 16 Aug 2024 UTC via an SSLV launch vehicle from the Sirharikota (SRI). Payload-class satellites include a variety of spacecraft equipped with specific instruments for various scientific and technological missions. These include communications satellites like Starlink; space stations such as the ISS; scientific satellites like the Hubble; Earth observation satellites from companies like Planet Labs, Umbra, and HawkEye 360; GPS; miniature CubeSats for education and research; and military/defense satellites.

Loading next visibility...
Identifier
60454, 2024-147A
Orbit
LEO
Country
Flag of ININ / IND
Related business
Manufacturer
ISRO SAC/Banga
Mission
Operational Civil Imaging
Bus & Motor
IMS-1, Unknown motor
Mass
176 kg wet, ~176 kg dry
Launch date (UTC)
2024-08-16 (2 years ago)
Launch vehicle
SSLV
Launch site
Sirharikota (SRI)
Object type
Payload
Rocket body
Debris
Shape & HBR
Box + 2 Pan, 1.5 m
Radar Cross Section
0.935 m², Large (>1 m²)

Expand to show TLE details & history
Last TLE update: 14 hours ago

TLE from 14 hours ago
0 EOS-8
1 60454U 24147A   26207.57971262  .00032376  00000-0  53561-3 0  9997
2 60454  37.3796 167.0754 0006345 246.2767 113.7333 15.51296391109191
Epoch: 2026-07-26T13:54Z
TLE epoch observation values (Epoch: 2026-07-26T13:54:47.170Z)
Latitude
-0.00004°
Longitude
14.1032°
Altitude
413.825 km
Speed
7.664 km/s
True Right ascension
11h 08m 18s
True Declination
0° 00' 00"
Sunlit
Object was in daylight at epoch
Visualization orbit readout
Latitude
Unknown
Longitude
Unknown
Altitude
Unknown
Speed
Unknown
Apparent Right ascension
Unknown
Apparent Declination
Unknown
Sunlit
N/A
Visualization observer readout
Local Sidereal Time
17:06:59
Azimuth
Unknown
Elevation
Unknown
Doppler factor
Unknown
Orbital elements
Apogee altitude
420.156 km
Perigee altitude
411.534 km
Semi-major axis
6,793.982 km
Eccentricity
0.00063
Inclination
37.3796°
RAAN
167.0754°
Arg. of periapsis
246.2767°
True anomaly
113.79984°
Mean anomaly
113.7333°
Eccentric anomaly
113.76657°
Mean motion
3.87576 °/min
Orbital period
92.89 mins
BSTAR
0.00053561
Loading maneuver chart data...
Computing Atmospheric mass density...
Loading historical data...
Loading historical data...
Loading historical data...
Loading historical data...
Loading historical data...
Loading historical data...
Loading historical data...
Other satellites on launch #147 in the year 2024 (2024-08-16 UTC)

Documentation

Showing up to 5 results
|